Regional Weather Roundup
Issued by NWS

Home | Current Version | Previous Version | Text Only | Print | Product List | Glossary On
Versions: 1 2 3 4 5 6 7 8 9 10 11 12 13 14 15 16 17 18 19 20 21 22 23 24 25 26 27 28 29 30 31 32 33 34 35 36 37 38 39 40 41 42 43 44 45 46 47 48 49 50
000
ASPQ40 PGUM 230012
RWRPQ
WEATHER ROUNDUP FOR THE MARIANAS AND MICRONESIA
NATIONAL WEATHER SERVICE TIYAN GU
1000 AM CHST SAT AUG 23 2014

GUZ001>004-230100-
MARIANA ISLANDS-

CITY           SKY/WX    TMP DP  RH WIND       PRES   REMARKS
GUAM AIRPORT   PTSUNNY   84  75  74 CALM      29.88F HX  92
ANDERSEN AFB   PTSUNNY   84  77  79 S10       29.89S HX  94
ROTA AIRPORT   MOSUNNY   84  77  79 VRB6      29.90S HX  94
TINIAN AP      PTSUNNY   86  79  79 E3        29.87S HX  99
SAIPAN AP      MOSUNNY   88  75  66 S7        29.89R HX  97

$$

PMZ161-230100-
REPUBLIC OF PALAU-

CITY           SKY/WX    TMP DP  RH WIND       PRES   REMARKS
KOROR AP       CLOUDY    81  79  94 W7        29.92
KOROR WSO      LGT RAIN  77  73  88 W7        29.92F

$$

PMZ171>174-230100-
FEDERATED STATES OF MICRONESIA-

CITY           SKY/WX    TMP DP  RH WIND       PRES   REMARKS
YAP AIRPORT    CLOUDY    82  77  83 VRB5      29.85  HX  91
CHUUK AP       PTSUNNY   84  81  89 N8        29.85F HX  98
POHNPEI AP     MOSUNNY   86  79  79 NW6       29.84F HX  99
POHNPEI WSO    MOSUNNY   88  75  66 NE5       29.88F HX  97
KOSRAE AP      PTSUNNY   88  75  66 NE9       29.85S HX  97

$$

PMZ181-230100-
REPUBLIC OF THE MARSHALL ISLANDS-

CITY           SKY/WX    TMP DP  RH WIND       PRES   REMARKS
KWAJALEIN AP   MOSUNNY   88  73  62 NE12      29.84F HX  96
MAJURO AP      NOT AVBL
MAJURO WSO     MOSUNNY   88  77  70 E13       29.83F HX 100

$$



USA.gov is the U.S. government's official web portal to all federal, state and local government web resources and services.